IFA25NL EKVG-ETNL

Flight info

Callsign IFA25NL
Flight time N/A
Altitude 41000
Route RAKUP DCT NALAN DCT WAFIL DCT KLONN DCT KARLI P613 BAVTA DCT MAKEL
Aircraft CL60/M-SBDE1E2E3FGHIJ1J4J5J7M3RWXYZ/LB1V1D1

Departure

Time 2026-04-29 17:26
Airport Vágar Airport (EKVG)

Arrival

Time N/A
Airport Rostock-Laage Airport (ETNL)
Time Latitude Longitude Altitude Speed Heading
2026-04-29 16:51 62.06605 -7.27984 290 ft 0 kts 187°
2026-04-29 17:23 62.06586 -7.27999 290 ft 4 kts 225°
2026-04-29 17:23 62.06567 -7.28068 290 ft 6 kts 225°
2026-04-29 17:23 62.06515 -7.28116 290 ft 10 kts 205°
2026-04-29 17:24 62.06491 -7.28253 290 ft 12 kts 294°
2026-04-29 17:24 62.06536 -7.28439 290 ft 15 kts 298°
2026-04-29 17:24 62.06592 -7.28666 290 ft 18 kts 297°
2026-04-29 17:24 62.06640 -7.28859 290 ft 12 kts 298°
2026-04-29 17:25 62.06682 -7.29027 290 ft 10 kts 297°
2026-04-29 17:25 62.06699 -7.29159 290 ft 4 kts 287°
2026-04-29 17:25 62.06713 -7.29143 290 ft 5 kts 113°
2026-04-29 17:25 62.06687 -7.29045 290 ft 10 kts 119°
2026-04-29 17:26 62.06606 -7.28722 290 ft 62 kts 119°
2026-04-29 17:26 62.06241 -7.27232 345 ft 154 kts 120°
2026-04-29 17:26 62.05810 -7.25024 1270 ft 171 kts 117°
2026-04-29 17:26 62.05289 -7.22654 2030 ft 202 kts 126°
2026-04-29 17:27 62.04519 -7.19762 2771 ft 243 kts 126°
2026-04-29 17:27 62.03703 -7.16704 3914 ft 261 kts 126°
2026-04-29 17:27 62.02824 -7.13376 5398 ft 266 kts 128°
2026-04-29 17:27 62.01701 -7.10293 6778 ft 270 kts 142°
2026-04-29 17:28 62.00290 -7.07892 8219 ft 268 kts 155°
2026-04-29 17:28 61.98635 -7.06247 9624 ft 267 kts 168°
2026-04-29 17:28 61.96893 -7.05191 11039 ft 268 kts 171°
2026-04-29 17:28 61.95135 -7.04162 12469 ft 268 kts 171°
2026-04-29 17:29 61.93393 -7.03137 13878 ft 266 kts 172°
2026-04-29 17:29 61.91657 -7.02115 15285 ft 261 kts 172°
2026-04-29 17:29 61.89961 -7.01119 16611 ft 257 kts 172°
2026-04-29 17:29 61.88848 -7.00465 17458 ft 254 kts 172°
2026-04-29 17:30 61.86485 -6.99110 18232 ft 283 kts 172°
2026-04-29 17:30 61.84524 -6.97980 18924 ft 299 kts 171°
2026-04-29 17:30 61.82516 -6.96811 19772 ft 307 kts 171°
2026-04-29 17:30 61.80456 -6.95610 20666 ft 313 kts 170°
2026-04-29 17:31 61.78347 -6.94379 21577 ft 318 kts 170°
2026-04-29 17:31 61.76232 -6.93148 22433 ft 323 kts 170°
2026-04-29 17:31 61.74074 -6.91893 23258 ft 327 kts 169°
2026-04-29 17:31 61.71867 -6.90612 24073 ft 333 kts 169°
2026-04-29 17:32 61.69647 -6.89325 24891 ft 338 kts 169°
2026-04-29 17:32 61.67398 -6.88023 25675 ft 343 kts 169°
2026-04-29 17:32 61.65060 -6.86673 26449 ft 348 kts 169°
2026-04-29 17:32 61.62724 -6.85325 27175 ft 352 kts 169°
2026-04-29 17:33 61.60339 -6.83951 27901 ft 356 kts 169°
2026-04-29 17:33 61.57921 -6.82560 28566 ft 361 kts 169°
2026-04-29 17:33 61.55495 -6.81168 29218 ft 365 kts 169°
2026-04-29 17:33 61.53056 -6.79770 29836 ft 369 kts 169°
2026-04-29 17:34 61.50569 -6.78346 30433 ft 373 kts 169°
2026-04-29 17:34 61.48087 -6.76929 30965 ft 377 kts 169°
2026-04-29 17:34 61.45541 -6.75477 31481 ft 380 kts 169°
2026-04-29 17:34 61.42987 -6.74023 31942 ft 385 kts 168°
2026-04-29 17:35 61.39552 -6.72071 32528 ft 390 kts 168°
2026-04-29 17:35 61.35157 -6.69580 33228 ft 395 kts 168°
2026-04-29 17:35 61.32505 -6.68081 33621 ft 399 kts 168°
2026-04-29 17:36 61.29859 -6.66587 34010 ft 401 kts 168°
2026-04-29 17:36 61.27169 -6.65071 34436 ft 403 kts 168°
2026-04-29 17:36 61.24469 -6.63551 34941 ft 402 kts 168°
2026-04-29 17:36 61.21795 -6.62048 35508 ft 401 kts 168°
2026-04-29 17:37 61.19138 -6.60558 36062 ft 398 kts 168°
2026-04-29 17:37 61.16483 -6.59022 36583 ft 398 kts 166°
2026-04-29 17:37 61.13914 -6.57008 37053 ft 400 kts 159°
2026-04-29 17:37 61.11425 -6.54315 37491 ft 402 kts 152°
2026-04-29 17:38 61.09137 -6.51068 37857 ft 406 kts 145°
2026-04-29 17:38 61.07009 -6.47199 38211 ft 410 kts 138°
2026-04-29 17:38 61.05112 -6.42805 38526 ft 414 kts 131°
2026-04-29 17:38 61.03486 -6.37961 38834 ft 417 kts 124°
2026-04-29 17:39 61.02136 -6.32652 39150 ft 420 kts 117°
2026-04-29 17:39 61.01109 -6.27029 39462 ft 423 kts 110°
2026-04-29 17:39 61.00418 -6.21166 39744 ft 425 kts 102°
2026-04-29 17:39 61.00073 -6.15155 40007 ft 427 kts 95°
2026-04-29 17:40 61.00013 -6.09038 40242 ft 429 kts 92°
2026-04-29 17:40 60.99811 -6.02921 40461 ft 427 kts 101°
2026-04-29 17:40 60.99200 -5.97058 40658 ft 424 kts 109°
2026-04-29 17:40 60.98174 -5.91367 40799 ft 422 kts 116°
2026-04-29 17:41 60.96998 -5.85868 40927 ft 423 kts 116°
2026-04-29 17:41 60.95818 -5.80349 41066 ft 423 kts 116°
2026-04-29 17:41 60.94640 -5.74859 41212 ft 423 kts 116°
2026-04-29 17:41 60.93460 -5.69372 41341 ft 423 kts 116°
2026-04-29 17:42 60.92254 -5.63779 41351 ft 427 kts 116°
2026-04-29 17:42 60.89837 -5.52630 41350 ft 435 kts 116°
2026-04-29 17:43 60.87349 -5.41214 41349 ft 443 kts 116°
2026-04-29 17:43 60.84813 -5.29638 41357 ft 450 kts 117°
2026-04-29 17:44 60.82241 -5.17973 41364 ft 456 kts 116°
2026-04-29 17:44 60.79605 -5.06075 41360 ft 461 kts 116°
2026-04-29 17:45 60.76938 -4.94112 41361 ft 465 kts 116°
2026-04-29 17:45 60.74260 -4.82165 41363 ft 469 kts 116°
2026-04-29 17:46 60.71521 -4.70014 41376 ft 473 kts 116°
2026-04-29 17:46 60.68772 -4.57896 41382 ft 477 kts 116°
2026-04-29 17:47 60.65979 -4.45646 41377 ft 480 kts 116°
2026-04-29 17:47 60.63162 -4.33369 41384 ft 480 kts 117°
2026-04-29 17:48 60.60340 -4.21134 41386 ft 478 kts 117°
2026-04-29 17:48 60.57514 -4.08953 41387 ft 476 kts 117°
2026-04-29 17:49 60.54708 -3.96931 41399 ft 475 kts 117°
2026-04-29 17:49 60.51870 -3.84836 41395 ft 475 kts 117°
2026-04-29 17:50 60.49034 -3.72823 41397 ft 476 kts 117°
2026-04-29 17:50 60.46172 -3.60763 41405 ft 476 kts 116°
2026-04-29 17:51 60.43293 -3.48698 41407 ft 476 kts 116°
2026-04-29 17:51 60.40424 -3.36734 41412 ft 476 kts 116°
2026-04-29 17:52 60.37533 -3.24749 41416 ft 475 kts 117°
2026-04-29 17:52 60.34631 -3.12781 41417 ft 474 kts 117°
2026-04-29 17:53 60.31747 -3.00955 41412 ft 474 kts 117°
2026-04-29 17:53 60.28834 -2.89075 41404 ft 474 kts 117°
2026-04-29 17:54 60.25909 -2.77213 41398 ft 473 kts 117°
2026-04-29 17:54 60.22984 -2.65413 41409 ft 473 kts 117°
2026-04-29 17:55 60.20045 -2.53620 41412 ft 475 kts 117°
2026-04-29 17:55 60.17090 -2.41826 41410 ft 475 kts 117°
2026-04-29 17:56 60.14128 -2.30070 41425 ft 474 kts 118°
2026-04-29 17:56 60.11161 -2.18354 41417 ft 474 kts 118°
2026-04-29 17:57 60.08175 -2.06622 41421 ft 473 kts 117°
2026-04-29 17:57 60.05199 -1.94992 41428 ft 474 kts 117°
2026-04-29 17:58 60.02172 -1.83229 41430 ft 474 kts 117°
2026-04-29 17:58 59.99163 -1.71593 41431 ft 475 kts 117°
2026-04-29 17:59 59.96139 -1.59965 41443 ft 475 kts 117°
2026-04-29 17:59 59.93100 -1.48334 41440 ft 475 kts 118°
2026-04-29 18:00 59.90048 -1.36717 41432 ft 475 kts 117°
2026-04-29 18:00 59.86863 -1.25285 41454 ft 473 kts 124°
2026-04-29 18:01 59.83255 -1.14463 41449 ft 473 kts 124°
2026-04-29 18:01 59.79621 -1.03607 41438 ft 473 kts 124°
2026-04-29 18:02 59.75986 -0.92790 41444 ft 473 kts 124°
2026-04-29 18:02 59.72369 -0.82067 41453 ft 473 kts 124°
2026-04-29 18:03 59.68720 -0.71294 41454 ft 474 kts 124°
2026-04-29 18:03 59.65066 -0.60554 41459 ft 474 kts 124°
2026-04-29 18:04 59.61390 -0.49795 41468 ft 474 kts 124°
2026-04-29 18:04 59.57687 -0.39007 41472 ft 474 kts 124°
2026-04-29 18:05 59.54006 -0.28328 41472 ft 474 kts 125°
2026-04-29 18:05 59.50325 -0.17699 41472 ft 474 kts 125°
2026-04-29 18:06 59.46627 -0.07068 41479 ft 473 kts 125°
2026-04-29 18:06 59.42896 0.03614 41473 ft 474 kts 125°
2026-04-29 18:07 59.39188 0.14180 41477 ft 474 kts 124°
2026-04-29 18:07 59.35468 0.24733 41475 ft 473 kts 124°
2026-04-29 18:08 59.31745 0.35248 41471 ft 473 kts 124°
2026-04-29 18:08 59.27991 0.45802 41470 ft 473 kts 124°
2026-04-29 18:09 59.24250 0.56273 41476 ft 473 kts 124°
2026-04-29 18:09 59.20499 0.66725 41475 ft 473 kts 125°
2026-04-29 18:10 59.16732 0.77177 41487 ft 473 kts 125°
2026-04-29 18:10 59.12945 0.87639 41481 ft 473 kts 125°
2026-04-29 18:11 59.09167 0.98027 41483 ft 473 kts 125°
2026-04-29 18:11 59.05394 1.08356 41472 ft 472 kts 125°
2026-04-29 18:12 59.01589 1.18728 41470 ft 471 kts 125°
2026-04-29 18:12 58.97806 1.28994 41471 ft 471 kts 125°
2026-04-29 18:13 58.94016 1.39235 41478 ft 472 kts 125°
2026-04-29 18:13 58.90182 1.49550 41487 ft 473 kts 125°
2026-04-29 18:14 58.86379 1.59736 41493 ft 472 kts 125°
2026-04-29 18:14 58.82547 1.69957 41492 ft 471 kts 126°
2026-04-29 18:15 58.78706 1.80159 41487 ft 469 kts 126°
2026-04-29 18:15 58.74900 1.90222 41493 ft 468 kts 126°
2026-04-29 18:16 58.71066 2.00319 41493 ft 469 kts 126°
2026-04-29 18:16 58.67243 2.10344 41496 ft 469 kts 125°
2026-04-29 18:17 58.63384 2.20420 41494 ft 469 kts 125°
2026-04-29 18:17 58.59531 2.30438 41485 ft 469 kts 125°
2026-04-29 18:18 58.55684 2.40396 41486 ft 468 kts 125°
2026-04-29 18:18 58.51822 2.50351 41495 ft 467 kts 126°
2026-04-29 18:19 58.47954 2.60281 41491 ft 467 kts 126°
2026-04-29 18:19 58.44093 2.70150 41487 ft 467 kts 126°
2026-04-29 18:20 58.40218 2.80013 41487 ft 467 kts 126°
2026-04-29 18:20 58.35968 2.89356 41487 ft 468 kts 133°
2026-04-29 18:21 58.31558 2.98302 41486 ft 468 kts 132°
2026-04-29 18:21 58.27118 3.07284 41487 ft 467 kts 132°
2026-04-29 18:22 58.22700 3.16192 41491 ft 467 kts 132°
2026-04-29 18:22 58.18269 3.25096 41496 ft 467 kts 132°
2026-04-29 18:23 58.13820 3.34001 41501 ft 467 kts 132°
2026-04-29 18:23 58.09369 3.42879 41499 ft 467 kts 132°
2026-04-29 18:24 58.04910 3.51739 41499 ft 467 kts 132°
2026-04-29 18:24 58.00465 3.60539 41496 ft 466 kts 132°
2026-04-29 18:25 57.96075 3.69196 41495 ft 466 kts 133°
2026-04-29 18:25 57.91624 3.77941 41494 ft 466 kts 133°
2026-04-29 18:26 57.87142 3.86712 41487 ft 466 kts 133°
2026-04-29 18:26 57.82685 3.95404 41492 ft 466 kts 133°
2026-04-29 18:27 57.78334 4.04317 41487 ft 465 kts 129°
2026-04-29 18:27 57.74113 4.13403 41486 ft 465 kts 129°
2026-04-29 18:28 57.69867 4.22485 41477 ft 465 kts 129°
2026-04-29 18:28 57.65612 4.31539 41480 ft 465 kts 129°
2026-04-29 18:29 57.61362 4.40542 41484 ft 465 kts 129°
2026-04-29 18:29 57.57116 4.49496 41473 ft 465 kts 129°
2026-04-29 18:30 57.52826 4.58502 41476 ft 465 kts 129°
2026-04-29 18:30 57.48550 4.67441 41472 ft 465 kts 130°
2026-04-29 18:31 57.44278 4.76335 41476 ft 464 kts 130°
2026-04-29 18:31 57.39988 4.85231 41469 ft 465 kts 130°
2026-04-29 18:32 57.35679 4.94132 41475 ft 466 kts 130°
2026-04-29 18:32 57.29195 5.07460 41481 ft 466 kts 130°
2026-04-29 18:33 57.24870 5.16307 41482 ft 465 kts 130°
2026-04-29 18:33 57.20547 5.25117 41484 ft 465 kts 130°
2026-04-29 18:34 57.17682 5.30936 41483 ft 465 kts 130°
2026-04-29 18:34 57.11890 5.42658 41481 ft 465 kts 130°
2026-04-29 18:35 57.07549 5.51404 41477 ft 465 kts 129°
2026-04-29 18:35 57.03195 5.60142 41478 ft 466 kts 129°
2026-04-29 18:36 56.98810 5.68910 41474 ft 466 kts 130°
2026-04-29 18:36 56.94458 5.77581 41472 ft 466 kts 130°
2026-04-29 18:37 56.90088 5.86256 41473 ft 466 kts 130°
2026-04-29 18:37 56.85689 5.94954 41473 ft 466 kts 130°
2026-04-29 18:38 56.81314 6.03571 41472 ft 467 kts 130°
2026-04-29 18:38 56.76915 6.12208 41470 ft 467 kts 130°
2026-04-29 18:39 56.72475 6.20890 41469 ft 468 kts 130°
2026-04-29 18:39 56.68058 6.29496 41464 ft 468 kts 129°
2026-04-29 18:40 56.63630 6.38091 41467 ft 468 kts 129°
2026-04-29 18:40 56.59191 6.46674 41467 ft 468 kts 129°
2026-04-29 18:41 56.50264 6.63841 41475 ft 469 kts 129°
2026-04-29 18:42 56.48043 6.68092 41467 ft 470 kts 130°